Location: Lavardac
(44.1778°N, 0.2983°E)
Time: 03:27:19
(UTC+00:00)

Nimbus 7 Rocket - Pass Details

Date: 06 June 2020
Orbit: 922 x 965 km, 99.4° (Epoch: 09 July)

Event Time Altitude Azimuth Distance (km) Brightness Sun altitude
Rises 23:17:52 0° 14° (NNE) 3,660 8.6 -22.4°
Reaches altitude 10° 23:20:20 10° 15° (NNE) 2,707 7.7 -22.5°
Maximum altitude 23:26:26 90° 285° (WNW) 963 4.4 -22.7°
Enters shadow 23:28:31 44° 197° (SSW) 1,297 4.7 -22.7°
